OEKAF LOWL-LOWS

Flight info

Callsign OEKAF
Flight time 0h 31m
Altitude 8000
Route LIDSI DCT MATIG MATIG2R
Aircraft C182/L-SDGRY/S

Departure

Time 2026-04-14 12:23
Airport Linz-Hörsching Airport (LOWL)

Arrival

Time 2026-04-14 12:54
Airport Salzburg Airport (LOWS)
Time Latitude Longitude Altitude Speed Heading
2026-04-14 12:15 48.23882 14.18815 981 ft 0 kts 266°
2026-04-14 12:18 48.23882 14.18813 981 ft 2 kts 266°
2026-04-14 12:19 48.23856 14.18786 982 ft 7 kts 179°
2026-04-14 12:19 48.23785 14.18790 982 ft 12 kts 174°
2026-04-14 12:19 48.23745 14.18893 981 ft 16 kts 88°
2026-04-14 12:19 48.23749 14.19067 981 ft 18 kts 87°
2026-04-14 12:20 48.23757 14.19266 981 ft 23 kts 86°
2026-04-14 12:20 48.23768 14.19507 982 ft 22 kts 91°
2026-04-14 12:20 48.23699 14.19629 980 ft 15 kts 162°
2026-04-14 12:20 48.23598 14.19687 980 ft 16 kts 159°
2026-04-14 12:21 48.23470 14.19759 980 ft 22 kts 159°
2026-04-14 12:21 48.23343 14.19787 979 ft 10 kts 276°
2026-04-14 12:21 48.23353 14.19665 980 ft 9 kts 263°
2026-04-14 12:21 48.23353 14.19659 980 ft 0 kts 265°
2026-04-14 12:22 48.23346 14.19490 981 ft 44 kts 266°
2026-04-14 12:23 48.23327 14.18812 1097 ft 75 kts 267°
2026-04-14 12:23 48.23296 14.18008 1382 ft 79 kts 263°
2026-04-14 12:23 48.23263 14.17139 1675 ft 89 kts 265°
2026-04-14 12:23 48.23228 14.16176 1993 ft 95 kts 266°
2026-04-14 12:24 48.23194 14.15172 2383 ft 98 kts 266°
2026-04-14 12:24 48.23160 14.14166 2778 ft 96 kts 267°
2026-04-14 12:24 48.23124 14.13171 3138 ft 95 kts 267°
2026-04-14 12:24 48.23089 14.12180 3506 ft 94 kts 268°
2026-04-14 12:25 48.23055 14.11195 3927 ft 97 kts 269°
2026-04-14 12:25 48.23019 14.10150 4271 ft 104 kts 269°
2026-04-14 12:25 48.22980 14.09036 4590 ft 109 kts 268°
2026-04-14 12:25 48.22939 14.07887 4850 ft 111 kts 268°
2026-04-14 12:26 48.22898 14.06720 5060 ft 113 kts 268°
2026-04-14 12:26 48.22857 14.05554 5270 ft 114 kts 268°
2026-04-14 12:26 48.22848 14.05304 5314 ft 114 kts 268°
2026-04-14 12:27 48.22832 14.04853 5366 ft 115 kts 268°
2026-04-14 12:27 48.22791 14.03643 5544 ft 116 kts 268°
2026-04-14 12:27 48.22746 14.02435 5716 ft 116 kts 268°
2026-04-14 12:27 48.22702 14.01223 5896 ft 116 kts 268°
2026-04-14 12:28 48.22658 13.99995 6058 ft 119 kts 268°
2026-04-14 12:28 48.22612 13.98748 6233 ft 120 kts 268°
2026-04-14 12:28 48.22567 13.97497 6406 ft 120 kts 267°
2026-04-14 12:28 48.22521 13.96240 6572 ft 121 kts 267°
2026-04-14 12:29 48.22476 13.94999 6732 ft 121 kts 267°
2026-04-14 12:29 48.22429 13.93739 6897 ft 121 kts 266°
2026-04-14 12:29 48.22383 13.92477 7054 ft 121 kts 266°
2026-04-14 12:29 48.22336 13.91211 7212 ft 121 kts 266°
2026-04-14 12:30 48.22270 13.89950 7371 ft 121 kts 258°
2026-04-14 12:30 48.22044 13.89192 7474 ft 121 kts 235°
2026-04-14 12:30 48.21558 13.88164 7632 ft 121 kts 236°
2026-04-14 12:30 48.21081 13.87119 7797 ft 121 kts 235°
2026-04-14 12:31 48.20602 13.86074 7957 ft 122 kts 235°
2026-04-14 12:31 48.20103 13.84987 7994 ft 132 kts 235°
2026-04-14 12:31 48.19569 13.83823 8005 ft 138 kts 235°
2026-04-14 12:31 48.19013 13.82613 8005 ft 142 kts 235°
2026-04-14 12:32 48.18449 13.81385 8005 ft 143 kts 235°
2026-04-14 12:32 48.17888 13.80166 8003 ft 141 kts 235°
2026-04-14 12:32 48.17333 13.78960 8008 ft 141 kts 236°
2026-04-14 12:32 48.16775 13.77748 8007 ft 142 kts 236°
2026-04-14 12:33 48.16211 13.76524 8005 ft 143 kts 236°
2026-04-14 12:33 48.15647 13.75301 8005 ft 143 kts 236°
2026-04-14 12:33 48.15089 13.74090 8005 ft 143 kts 236°
2026-04-14 12:33 48.14522 13.72863 8005 ft 143 kts 236°
2026-04-14 12:34 48.13957 13.71638 8007 ft 143 kts 236°
2026-04-14 12:34 48.13392 13.70414 8007 ft 143 kts 236°
2026-04-14 12:34 48.12828 13.69193 8006 ft 143 kts 236°
2026-04-14 12:34 48.12264 13.67971 8007 ft 143 kts 236°
2026-04-14 12:35 48.11697 13.66748 8004 ft 143 kts 236°
2026-04-14 12:35 48.11131 13.65523 8006 ft 143 kts 236°
2026-04-14 12:35 48.10564 13.64301 8002 ft 143 kts 236°
2026-04-14 12:35 48.09997 13.63077 7999 ft 143 kts 236°
2026-04-14 12:36 48.09431 13.61852 8002 ft 143 kts 236°
2026-04-14 12:36 48.08869 13.60638 8002 ft 143 kts 236°
2026-04-14 12:36 48.08302 13.59415 8001 ft 143 kts 236°
2026-04-14 12:36 48.07735 13.58193 8001 ft 143 kts 236°
2026-04-14 12:37 48.07165 13.56966 8004 ft 143 kts 236°
2026-04-14 12:37 48.06599 13.55747 8004 ft 143 kts 236°
2026-04-14 12:37 48.06038 13.54522 8003 ft 142 kts 239°
2026-04-14 12:37 48.05767 13.53129 7996 ft 140 kts 265°
2026-04-14 12:38 48.05534 13.50238 7997 ft 141 kts 263°
2026-04-14 12:38 48.05411 13.48775 7997 ft 141 kts 263°
2026-04-14 12:38 48.05288 13.47306 7945 ft 145 kts 264°
2026-04-14 12:39 48.05162 13.45785 7835 ft 149 kts 263°
2026-04-14 12:39 48.05032 13.44239 7731 ft 151 kts 263°
2026-04-14 12:39 48.04901 13.42684 7626 ft 151 kts 263°
2026-04-14 12:39 48.04770 13.41125 7521 ft 151 kts 264°
2026-04-14 12:40 48.04639 13.39561 7414 ft 151 kts 263°
2026-04-14 12:40 48.04507 13.38004 7310 ft 151 kts 264°
2026-04-14 12:40 48.04376 13.36448 7219 ft 150 kts 264°
2026-04-14 12:40 48.04245 13.34901 7123 ft 150 kts 264°
2026-04-14 12:41 48.04114 13.33359 7030 ft 150 kts 265°
2026-04-14 12:41 48.03983 13.31815 6939 ft 150 kts 264°
2026-04-14 12:41 48.03854 13.30298 6847 ft 149 kts 264°
2026-04-14 12:41 48.03724 13.28764 6756 ft 149 kts 264°
2026-04-14 12:42 48.03592 13.27230 6682 ft 149 kts 266°
2026-04-14 12:42 48.03464 13.25687 6540 ft 152 kts 266°
2026-04-14 12:42 48.03329 13.24127 6323 ft 150 kts 266°
2026-04-14 12:42 48.03197 13.22605 6185 ft 146 kts 266°
2026-04-14 12:43 48.03068 13.21105 6078 ft 145 kts 266°
2026-04-14 12:43 48.02942 13.19621 5926 ft 143 kts 266°
2026-04-14 12:43 48.02815 13.18167 5809 ft 142 kts 266°
2026-04-14 12:43 48.02689 13.16708 5765 ft 141 kts 266°
2026-04-14 12:44 48.02561 13.15222 5641 ft 148 kts 266°
2026-04-14 12:44 48.02428 13.13668 5386 ft 152 kts 265°
2026-04-14 12:44 48.02268 13.12109 5108 ft 152 kts 258°
2026-04-14 12:45 48.01255 13.09435 4946 ft 141 kts 243°
2026-04-14 12:45 48.00754 13.08212 4946 ft 136 kts 242°
2026-04-14 12:45 48.00259 13.07008 4947 ft 137 kts 242°
2026-04-14 12:45 47.99760 13.05799 4947 ft 137 kts 242°
2026-04-14 12:46 47.99260 13.04589 4954 ft 137 kts 243°
2026-04-14 12:46 47.98757 13.03370 4957 ft 138 kts 242°
2026-04-14 12:46 47.98122 13.02273 4955 ft 144 kts 220°
2026-04-14 12:46 47.97189 13.01711 4952 ft 151 kts 192°
2026-04-14 12:47 47.96132 13.01839 4955 ft 154 kts 170°
2026-04-14 12:47 47.95086 13.02177 4955 ft 153 kts 171°
2026-04-14 12:47 47.94050 13.02496 4952 ft 151 kts 171°
2026-04-14 12:47 47.93031 13.02808 4955 ft 149 kts 171°
2026-04-14 12:48 47.92011 13.03119 4956 ft 151 kts 171°
2026-04-14 12:48 47.90974 13.03438 4963 ft 153 kts 171°
2026-04-14 12:48 47.89928 13.03758 4955 ft 153 kts 171°
2026-04-14 12:48 47.88897 13.04074 4959 ft 151 kts 171°
2026-04-14 12:49 47.87872 13.04388 4955 ft 149 kts 171°
2026-04-14 12:49 47.86854 13.04700 4914 ft 152 kts 172°
2026-04-14 12:49 47.85802 13.05018 4766 ft 155 kts 172°
2026-04-14 12:49 47.84739 13.05343 4643 ft 157 kts 171°
2026-04-14 12:50 47.83666 13.05671 4512 ft 157 kts 171°
2026-04-14 12:50 47.81594 13.06305 4251 ft 144 kts 172°
2026-04-14 12:50 47.80638 13.06596 4136 ft 137 kts 172°
2026-04-14 12:51 47.79714 13.06876 3997 ft 134 kts 172°
2026-04-14 12:51 47.78797 13.07156 3840 ft 135 kts 173°
2026-04-14 12:51 47.77876 13.07436 3683 ft 135 kts 172°
2026-04-14 12:51 47.76974 13.07398 3601 ft 125 kts 205°
2026-04-14 12:52 47.76332 13.06597 3379 ft 123 kts 237°
2026-04-14 12:52 47.75906 13.05489 3091 ft 118 kts 252°
2026-04-14 12:52 47.75770 13.04390 2861 ft 103 kts 275°
2026-04-14 12:52 47.76053 13.03458 2557 ft 103 kts 298°
2026-04-14 12:53 47.76424 13.02613 2312 ft 90 kts 311°
2026-04-14 12:53 47.76853 13.02044 2167 ft 72 kts 323°
2026-04-14 12:53 47.77270 13.01703 1999 ft 70 kts 332°
2026-04-14 12:53 47.77702 13.01419 1827 ft 68 kts 335°
2026-04-14 12:54 47.78135 13.01147 1645 ft 67 kts 334°
2026-04-14 12:54 47.78550 13.00887 1472 ft 63 kts 334°
2026-04-14 12:54 47.78908 13.00658 1414 ft 45 kts 336°
2026-04-14 12:54 47.79120 13.00509 1413 ft 20 kts 304°
2026-04-14 12:55 47.79116 13.00355 1414 ft 15 kts 271°
2026-04-14 12:55 47.79164 13.00231 1414 ft 14 kts 331°
2026-04-14 12:55 47.79256 13.00173 1415 ft 15 kts 337°
2026-04-14 12:55 47.79381 13.00093 1415 ft 23 kts 339°
2026-04-14 12:56 47.79512 13.00016 1415 ft 16 kts 339°
2026-04-14 12:56 47.79555 12.99933 1415 ft 11 kts 249°
2026-04-14 12:56 47.79545 12.99831 1414 ft 9 kts 256°
2026-04-14 12:56 47.79526 12.99752 1414 ft 6 kts 250°
2026-04-14 12:57 47.79530 12.99725 1414 ft 0 kts 338°
2026-04-14 12:57 47.79540 12.99719 1414 ft 2 kts 336°
2026-04-14 12:57 47.79541 12.99718 1414 ft 0 kts 336°